Regional Weather Roundup
Issued by NWS

Home | Current Version | Previous Version | Graphics & Text | Print | Product List | Glossary On
Versions: 1 2 3 4 5 6 7 8 9 10 11 12 13 14 15 16 17 18 19 20 21 22 23 24 25 26 27 28 29 30 31 32 33 34 35 36 37 38 39 40 41 42 43 44 45 46 47 48 49 50
662
ASUS45 KTFX 121810
RWRMT
MONTANA REGIONAL WEATHER ROUNDUP
NATIONAL WEATHER SERVICE GREAT FALLS MT
1100 AM MST FRI FEB 12 2016

NOTE: "FAIR" INDICATES FEW OR NO CLOUDS BELOW 12000 FEET WITH NO
SIGNIFICANT WEATHER AND/OR OBSTRUCTIONS TO VISIBILITY.

MTZ001>007-043-121900-
WEST OF THE DIVIDE

CITY           SKY/WX    TMP DP  RH WIND       PRES   REMARKS
KALISPELL      CLOUDY    36  34  92 CALM      30.20S FOG
MISSOULA       CLOUDY    39  37  92 CALM      30.23S FOG
BUTTE          SUNNY     38  33  82 CALM      30.22F
MULLAN PASS    LGT RAIN  34  34 100 SW8       30.19F WCI  27
ANACONDA         N/A     48  36  61 S13       30.19F
DEER LODGE       N/A     43  39  87 CALM      30.21F
HAMILTON         N/A     37  37 100 NW3       30.20F VSB 1/4
PLAINS           N/A     41  38  89 N2        30.21R
THOMPSON FALLS   N/A     40  39  96 CALM      30.26R
$$

MTZ008-052>055-121900-
SOUTHWEST MONTANA

CITY           SKY/WX    TMP DP  RH WIND       PRES   REMARKS
BOZEMAN        CLOUDY    35  33  92 NW3       30.22F
DILLON         CLOUDY    43  31  62 S12       30.24R
ENNIS          MOSUNNY   48  30  49 S22       30.27F
TWIN BRIDGES     N/A     40  31  70 S8        30.19F
$$

MTZ009-010-012-014-046-048-049-054-121900-
EAST SLOPES AND CENTRAL MONTANA

CITY           SKY/WX    TMP DP  RH WIND       PRES   REMARKS
CUT BANK       CLOUDY    35  32  88 SE16      30.14F WCI  25
GREAT FALLS    MOSUNNY   39  34  82 E8        30.15F
MALMSTROM AFB  PTSUNNY   40  37  89 NE7       30.16F
HELENA         CLOUDY    40  34  79 N3        30.21S
CHOTEAU          N/A     39  32  75 S6        30.16F
CONRAD           N/A     36  33  88 E7        30.16F WCI  30
$$

MTZ011-013-016-021-045-047-050-051-121900-
NORTH CENTRAL MONTANA

CITY           SKY/WX    TMP DP  RH WIND       PRES   REMARKS
HAVRE          CLOUDY    31  27  85 E17       30.23F WCI  19
LEWISTOWN      CLOUDY    35  30  82 E14       30.21F WCI  26
N BAR RANCH    FOG       32  32 100 E10       30.25F VSB 1/4 WCI  24
CHINOOK          N/A     27  25  93 E20G29    30.28F WCI  13
$$

MTZ017>020-022>027-061-062-121900-
NORTHEAST MONTANA

CITY           SKY/WX    TMP DP  RH WIND       PRES   REMARKS
GLASGOW        CLOUDY    15   9  76 E21       30.42F WCI  -2
JORDAN           N/A     25  24  96 E12       30.37S WCI  14
SIDNEY         CLOUDY    14   7  73 NE9       30.52F WCI   2
WOLF POINT     CLOUDY    12   3  67 E14       30.51S WCI  -3
PLENTYWOOD       N/A      5  -6  61 E8        30.53S WCI  -8
POPLAR           N/A     10   3  72 E10       30.52F WCI  -3
SCOBEY           N/A      9  -8  45 NE8       30.42F WCI  -3
$$

MTZ028>42-056>058-121900-
SOUTHCENTRAL AND SOUTHEAST MONTANA

CITY           SKY/WX    TMP DP  RH WIND       PRES   REMARKS
BAKER          CLOUDY    22  15  75 E13       30.41S WCI  10
BILLINGS       CLOUDY    36  30  79 NE10      30.26F WCI  28
LIVINGSTON     CLOUDY    49  33  54 E6        30.19F
MILES CITY     CLOUDY    29  24  82 NE13      30.37F WCI  19
FORSYTH          N/A     32  27  80 E9        30.34S WCI  24
LAUREL           N/A     36  27  70 N7        30.21F WCI  30
ROUNDUP          N/A     36  31  82 E3        30.16F
$$

REGIONAL REPORTS...DAKOTAS

CITY           SKY/WX    TMP DP  RH WIND       PRES   REMARKS
WILLISTON      CLOUDY     9  -4  55 VRB5      30.56S
MINOT          CLOUDY     7  -8  50 N3        30.61R
DICKINSON      CLOUDY     9  -2  61 SE8       30.47S WCI  -3
BEACH          CLOUDY    16  14  93 E12       30.47S WCI   3
CROSBY           N/A      7  -2  66 E6        30.59S WCI  -3
TIOGA            N/A      5  -2  72 E6        30.58S WCI  -6
WATFORD CITY     N/A     10  -2  56 E8        30.54F WCI  -1
BISMARCK       CLOUDY    10  -1  61 E8        30.60F WCI  -2
GRAND FORKS    PTSUNNY   -2 -13  59 N18       30.68R WCI -24
FARGO          MOSUNNY    1 -10  60 N17       30.65R WCI -19
BUFFALO SD       N/A     23  18  81 E13       30.34F WCI  11
RAPID CITY     FOG       27  26  96 SE10      30.41S VSB 3/4 WCI  17
$$

REGIONAL REPORTS...WYOMING/IDAHO/WASHINGTON

CITY           SKY/WX    TMP DP  RH WIND       PRES   REMARKS
GILLETTE       CLOUDY    31  28  89 SE8       30.31F WCI  23
SHERIDAN       PTSUNNY   36  30  80 N3        30.26F
BUFFALO WY     CLOUDY    38  30  73 SE9       30.27F WCI  31
CODY           SUNNY     46  27  46 CALM      30.23F
YELLOWSTONE LA   N/A     35  25  66 CALM      30.35F
IDAHO FALLS    CLOUDY    28  22  78 NE5       30.36F
SALMON         CLOUDY    27  23  86 CALM      30.34S
BOISE          SUNNY     40  31  70 CALM      30.34S
SPOKANE        CLOUDY    41  39  93 N3        30.19R
$$

REGIONAL REPORTS...ALBERTA

CITY           SKY/WX    TMP DP  RH WIND       PRES   REMARKS
EDMONTON       CLOUDY    19  14  79 SE16      30.19F WCI   5
CALGARY        FOG       25  23  93 SE13      30.08F VSB 1/4 WCI  13
LETHBRIDGE     MOSUNNY   39  34  81 SE9       30.10F
MEDICINE HAT   CLOUDY    30  25  80 NE10      30.23S WCI  21
MILK RIVER       N/A     34  32  93 S20G28      N/A  WCI  22
ONEFOUR          N/A     25  25 100 E18         N/A  WCI  11
$$

REGIONAL REPORTS...SASKATCHEWAN

CITY           SKY/WX    TMP DP  RH WIND       PRES   REMARKS
SWIFT CURRENT  CLOUDY    10   5  79 SE16      30.35F WCI  -7
REGINA         PTSUNNY    7  -2  66 SE9       30.56S WCI  -7
SASKATOON      MOSUNNY    1  -8  66 SE13      30.59R WCI -16
CYPRESS HILLS    N/A     18  16  93 S6          N/A  WCI   9
VAL MARIE        N/A     16  12  86 SE14        N/A  WCI   1
ASSINIBOIA       N/A     14   9  79 SE15G21     N/A  WCI  -1
$$




USA.gov is the U.S. government's official web portal to all federal, state and local government web resources and services.